Powrót do katalogu

COSMOS 2251 DEB

AktywnyLEO
NORAD 33914·DEBRIS·🇷🇺 Russia

Wystrzelony Jun 16, 1993 z Plesetsk Cosmodrome

Loading…

Następne Przeloty (najbliższe 24 godziny)

TLE

ŚwieżeSource: Space-Track

Epoka: Sep 13, 2026, 12:41 UTC

1 33914U 93036DT  26256.52855051  .00000331  00000-0  27887-3 0  9995
2 33914  74.0878 282.0676 0304918 320.8804 204.7492 13.72278833878507

Śledź COSMOS 2251 DEB w czasie rzeczywistym z AllMySat

Download on the App Store